Regional Weather Roundup
Issued by NWS

Home | Current Version | Previous Version | Graphics & Text | Print | Product List | Glossary On
Versions: 1 2 3 4 5 6 7 8 9 10 11 12 13 14 15 16 17 18 19 20 21 22 23 24 25 26 27 28 29 30 31 32 33 34 35 36 37 38 39 40 41 42 43 44 45 46 47 48 49 50
000
ASUS43 KFSD 231902
RWRSD

WEATHER ROUNDUP FOR SOUTH DAKOTA
NATIONAL WEATHER SERVICE SIOUX FALLS SD
100 PM CST SUN NOV 23 2014

NOTE: "FAIR" INDICATES FEW OR NO CLOUDS BELOW 12,000 FEET WITH NO
SIGNIFICANT WEATHER AND/OR OBSTRUCTIONS TO VISIBILITY.


SDZ001>005-009-010-012>017-232000-
NORTHWEST AND NORTH CENTRAL SOUTH DAKOTA

CITY           SKY/WX    TMP DP  RH WIND       PRES   REMARKS
BUFFALO          N/A     33  19  56 NW45G59   29.59F WCI  17
FAITH            N/A     37  23  56 NW43G53   29.62S
MOBRIDGE       PTSUNNY   36  24  62 NW25G40   29.55F
$$

SDZ012>016-024>037-041>051-057-063-072>074-232000-
SOUTHWEST AND SOUTH CENTRAL SOUTH DAKOTA

CITY           SKY/WX    TMP DP  RH WIND       PRES   REMARKS
RAPID CTY ARPT MOSUNNY   43  20  39 NW39G61   29.68F
PIERRE         CLOUDY    41  28  60 NW21      29.61F
CUSTER         PTSUNNY   30  16  56 NW18G30   29.67F WCI  18
ELLSWORTH AFB  MIX PCPN  41  21  45 NW38G51   29.67
PHILIP         SUNNY     49  24  37 NW32G49   29.65F
PINE RIDGE     SUNNY     44  21  40 NW15G22   29.71F
WINNER         MOCLDY    46  26  45 NW33G40   29.63F
$$

SDZ004>011-016>023-039-040-232000-
NORTHEAST SOUTH DAKOTA

CITY           SKY/WX    TMP DP  RH WIND       PRES   REMARKS
ABERDEEN       CLOUDY    38  26  62 NW23G29   29.55S
WATERTOWN      CLOUDY    38  31  76 W13       29.49F
SISSETON         N/A     41  32  70 NW22      29.47S
$$

SDZ017-020-022-023-036>040-048>070-232000-
SOUTHEAST SOUTH DAKOTA

CITY           SKY/WX    TMP DP  RH WIND       PRES   REMARKS
SIOUX FALLS    CLOUDY    41  35  79 NW16      29.52F
HURON          CLOUDY    41  32  70 NW18      29.56F
MITCHELL       CLOUDY    45  31  58 NW24      29.57
YANKTON        CLOUDY    43  32  65 NW23G29   29.55F
$$

ABBREVIATIONS USED IN REMARKS
   TC - TEMPERATURE IN CELSIUS
  WCI - WIND CHILL INDEX
   HX - HEAT INDEX
  VSB - VISIBILITY




USA.gov is the U.S. government's official web portal to all federal, state and local government web resources and services.